www.pogodaiklimat.ru

Погода и климат >> Архив погоды >> Россия >> Мурманская область >> Териберка


АРХИВ ПОГОДЫ в Териберке

Время (UTC), дата Ветер
(напр.,м/с)
 
Видим.   Явления Облачность Т
(С)
Тd
(С)
f
(%)
Тe
(С)
Тes
(С)
Комфортность P
(гПа)
Po
(гПа)
Тmin
(С)
Tmax
(С)
R
(мм)
R24
(мм)
S
(см)
12 13.05 ЮЗ 12-15
{19}
20 км {ливн. осадки} 8/4 600 м
[Cb cap Ac trans Ci sp]
+9.0 +1.8 61 +4 +4 1017.6 1013.9
18 13.05 ЮЗ 6-8
{11}
20 км 9/5 600 м
[Cb cap Ac trans]
+6.6 +2.4 75 +2 +2 1022.4 1018.7 +9.5
00 14.05 Ю 2 20 км 9/8 600 м
[Cb cap Ac trans]
+4.6 +2.4 86 +2 +2 1023.7 1019.9
06 14.05 ЮЗ 4 20 км {ливн. осадки} 9/8 300 м
[Cb cap Ac trans]
+5.0 +3.1 88 +1 +1 1023.2 1019.4 +3.8 0.3 0
12 14.05 СЗ 3 20 км 6/6 600 м
[Cb cap]
+4.9 +2.4 84 +1 +4 1023.0 1019.2
18 14.05 Ю 1 20 км 9/8 600 м
[Cb cap Ac trans Cc]
+6.4 +2.5 76 +6 +6 1022.0 1018.2 +7.8
00 15.05 З 2 20 км 6/4 600 м
[Cb cap Cc]
+4.3 -0.8 69 +2 +2 1021.3 1017.5
06 15.05 З 6 20 км 9/6 600 м
[Cb cap Ac trans Ci sp]
+4.8 +1.2 77 -0 0 1021.6 1017.8 +4.0 0
12 15.05 СЗ 11-15
{15}
20 км {ливн. осадки} 8/3 600 м
[Cb cap Ac trans Cc]
+4.8 +1.5 79 -2 -2 1022.8 1019.0
18 15.05 СЗ 10-11
{13}
20 км 9/9 600 м
[Cb cap]
+3.8 +0.7 80 -3 -3 1024.1 1020.3 +4.8 0.1
00 16.05 З 8-12
{14}
20 км 9/9 300 м
[Cb cap]
+3.8 -2.1 65 -2 -2 1023.4 1019.6
06 16.05 З 9-11
{14}
20 км 9/9 600 м
[Cb cap]
+4.7 -1.3 65 -1 -1 1022.1 1018.3 +2.6 0
12 16.05 З 14-19
{21}
20 км в посл. час ливневой дождь 9/9 600 м
[Cb cap]
+5.4 +0.5 71 -2 -2 1020.5 1016.7
18 16.05 СЗ 12-15
{19}
10 км слаб. ливневой дождь 10/8 300 м
[Cb cap Ac und]
+2.8 +2.3 97 -5 -5 1019.6 1015.8 +6.2 2
00 17.05 З 13-18
{19}
20 км слаб. ливневой дождь со снегом 9/9 300 м
[Cb cap]
+2.4 -0.3 82 -6 -6 1019.8 1016.0
06 17.05 З 13-17
{18}
20 км слаб. ливневой дождь 9/9 300 м
[Cb cap]
+2.8 +0.4 84 -5 -5 1021.6 1017.8 +2.1 0.5 0
12 17.05 СЗ 15-19
{20}
20 км в посл. час ливневой дождь 10/10 400 м
[Cb cap]
+3.5 +1.4 86 -5 -5 1022.6 1018.7
18 17.05 СЗ 15-17
{18}
20 км слаб. ливневой дождь 9/9 400 м
[Cb cap]
+2.7 +0.4 85 -6 -6 1022.5 1018.6 +3.8 0.3
00 18.05 С 11-12
{16}
24 км {ливн. осадки} 9/8 300 м
[Cb cap Ac trans]
+2.8 +1.0 88 -5 -5 1021.7 1017.8
06 18.05 СЗ 10-12
{15}
20 км {ливн. осадки} 9/9 400 м
[Cb cap]
+2.8 +0.6 85 -4 -4 1022.9 1019.0 +2.1 0.6 0
12 18.05 СЗ 6-7
{11}
20 км слаб. ливневой дождь 10/10 480 м
[Cb cap]
+2.4 +1.2 92 -4 -4 1025.0 1021.1
18 18.05 С 6 20 км {ливн. осадки} 9/6 600 м
[Cb cap Ac trans]
+2.1 +0.2 87 -4 -4 1025.7 1021.8 +3.6 0.6
00 19.05 С 4 20 км 10/10 480 м
[Cb cap]
+2.2 -0.1 85 -3 -3 1026.4 1022.5
06 19.05 С 3 20 км {ливн. осадки} 10/10 480 м
[Cb cap]
+2.9 +0.6 85 -1 -1 1027.4 1023.5 +1.3 0.3
12 19.05 С 3 20 км 9/8 600 м
[Cb cap Ac As Ci sp]
+3.8 -1.8 67 0 +1 1027.8 1023.9
18 19.05 В 4 20 км 6/5 600 м
[Cb cap Ac trans]
+2.5 -1.5 75 -2 -2 1027.2 1023.3 +4.0
00 20.05 Ю 2 20 км 8/4 600 м
[Sc Ac trans Cs]
-0.2 -2.3 86 -4 -4 1027.4 1023.4
06 20.05 ЮВ 4 20 км 3/1 600 м
[Cu Sc Ci sp]
+4.0 -1.6 67 -0 +3 1026.0 1022.1 -1.1 0

 

Местоположение метеостанции Териберка (Мурманская область, Россия): широта 69.20 долгота 35.12 высота над уровнем моря 30 м.

В архиве по умолчанию представлена погода в Териберке за последнюю неделю. Архивные данные за месяц целиком и за предыдущие месяцы, начиная с января 2011 года, Вы можете получить, выбрав интересующий диапазон дат из раскрывающегося списка и нажав кнопку "Ввод!".


*Определитесь, кто Вы:
робот инопланетянин человек

Внимание! Время в таблицах - всемирное. Для получения местного времени необходимо прибавить поправку, которая равна 3 ч.

Смотрите также архив погоды в соседних городах и на ближайших метеорологических станциях:

Погода в Дальних Зеленцах (Мурманская область, Россия) (39 км)
Погода в Туманной (Мурманская область, Россия) (41 км)
Погода в Полярном (Мурманская область, Россия) (65 км)
Погода в Североморске (Мурманская область, Россия) (67 км)
Погода в Мурманске (Мурманская область, Россия) (86 км)
Погода в Ура-Губе (Мурманская область, Россия) (92 км)
Погода в Цып-Наволоке (Мурманская область, Россия) (98 км)
Погода в Мурманске аэропорт (Мурманская область, Россия) (114 км)
Погода в Пулозере (Мурманская область, Россия) (120 км)
Погода в Ловозере (Мурманская область, Россия) (134 км)

Пояснения к столбцам:

Ветер - указаны скорость ветра в м/с - средняя за 10 мин, порывы в срок и между сроками (в фигурных скобках) и направление, откуда дует ветер: С - северный, СВ - северо-восточный, В - восточный, ЮВ - юго-восточный, Ю - южный, ЮЗ - юго-западный, З - западный, СЗ - северо-западный.
Видимость - горизонтальная дальность видимости в метрах или километрах. При видимости от 1 до 10 км при отсутствии осадков обычно наблюдается дымка, при ухудшении видимости до 1 км и менее - туман. В сухую погоду видимость может ухудшаться дымом, пылью или мглою.
Явления - указаны атмосферные явления, наблюдавшиеся в срок или в последний час перед сроком; фигурными скобками обозначены явления, наблюдавшиеся между сроками (за 1-3 часа до срока); квадратными скобками обозначены град или гололедные отложения с указанием их диаметра в мм.
Облачность - указаны через наклонную черту общая и нижняя облачность в баллах и высота нижней границы облаков в метрах; квадратными скобками обозначены формы облаков: Ci - перистые, Cs - перисто-слоистые, Cc - перисто-кучевые, Ac - высококучевые, As - высокослоистые, Sc - слоисто-кучевые, Ns - слоисто-дождевые, Cu - кучевые, Cb - кучево-дождевые. Подробнее классификацию облаков см. в Атласе облаков (PDF).
T - Температура воздуха - температура, измеренная на высоте 2 м над землей.
Td - Температура точки росы - температура, при понижении до которой содержащийся в воздухе водяной пар достигнет насыщения.
f - Относительная влажность воздуха - влажноcть воздуха, измеренная на высоте 2 м над землей.
Te - Эффективная температура - температура, которую ощущает одетый по сезону человек в тени. Характеристика душности погоды. При расчете учитывается влияние влажности воздуха и скорости ветра на теплоощущения человека.
Tes - Эффективная температура на солнце - температура, которую ощущает человек, с поправкой на солнечный нагрев. Характеристика знойности погоды. Зависит от высоты солнца над горизонтом, облачности и скорости ветра. Ночью, в пасмурную погоду, а также при ветре 12 м/с и более поправка равна нулю.
P - Атмосферное давление - приведенное к уровню моря атмосферное давление.
Po - Атмосферное давление - измеренное на уровне метеостанции атмосферное давление.
Tmin - Минимальная температура - минимум температуры воздуха на высоте 2 м над землей.
Tmax - Максимальная температура - максимум температуры воздуха на высоте 2 м над землей.
R - Количество осадков - Количество выпавших осадков за период времени, мм. При наведении курсора мыши на число - период времени, за который выпало указанное количество осадков.
R24 - Количество осадков - Количество выпавших осадков за 24 часа, мм.
S - Снежный покров - Высота снежного покрова, см. При наведении курсора мыши на число - состояние снежного покрова и степень покрытия местности в баллах.